Location: Crescent
(42.8242°N, 73.7329°W)
Time: 14:53:45
(UTC+00:00)

Explorer 11/Cluster Stage 4 - Pass Details

Date: 24 February 2026
Orbit: 463 x 1176 km, 28.8° (Epoch: 8 March)

Event Time Altitude Azimuth Distance (km) Brightness Sun altitude
Rises 15:42:19 0° 232° (SW) 3,511 10.1 34.3°
Reaches altitude 10° 15:46:07 10° 212° (SSW) 2,404 9.6 34.6°
Maximum altitude 15:49:22 16° 176° (S) 1,894 9.9 34.9°
Drops below altitude 10° 15:52:19 10° 140° (SE) 2,120 10.0 35.1°
Sets 15:55:22 0° 118° (ESE) 2,892 10.1 35.3°
